Lid_Strength_Index
5 5 5 5 6 7 8 8 8 8 9 9 9 9 10 8 6 5 5 2 1 1 0 -0 -1 -1 -0 -0 -1 -0 0 0 -1 -1 -1 -1 -1 -1 -1 -2 -1 -1 -1
6 6 7 7 7 7 7 8 8 8 9 9 9 9 9 9 7 6 6 5 2 3 2 2 2 1 0 0 -0 0 1 1 1 1 0 1 -0 -1 -1 -2 -2 -2 -1
6 7 7 7 7 7 8 8 9 9 9 9 10 9 9 9 9 7 6 6 5 3 3 4 3 3 2 2 1 2 1 1 1 0 1 2 -1 0 -1 -1 -2 -2 -2
6 7 7 7 7 8 8 9 9 9 9 9 10 10 9 9 9 9 7 7 6 6 4 4 4 4 4 3 3 2 2 2 1 1 1 1 2 1 -0 0 -1 -1 -1
5 6 7 7 7 8 8 8 9 9 9 9 9 9 10 10 9 8 9 8 8 7 7 4 5 5 4 4 4 3 3 2 2 1 1 1 1 0 1 -0 -1 -1 -1
5 6 6 7 7 8 8 8 9 9 9 9 7 9 11 10 9 9 9 8 8 7 8 8 8 8 4 3 4 4 4 3 3 2 2 1 1 0 0 -0 0 0 -0
5 6 6 7 7 7 8 8 9 9 10 10 10 10 10 10 10 10 9 9 9 8 8 8 9 8 8 5 5 4 4 4 4 3 2 2 1 1 0 -0 -0 -0 1
7 6 6 7 7 8 8 9 9 10 10 10 11 12 13 11 11 10 10 9 10 9 9 8 9 9 9 9 7 3 4 5 4 4 3 2 2 1 1 0 -0 -0 -1
7 7 6 6 7 7 7 8 9 9 10 10 10 11 13 13 12 11 11 10 11 10 10 10 10 10 10 10 7 6 3 4 4 4 3 3 2 2 1 1 0 0 -0
7 6 6 6 6 6 7 7 8 9 10 10 11 10 11 12 13 13 11 11 11 10 11 10 10 10 10 10 7 5 4 4 4 4 4 3 3 2 2 2 1 1 0
6 6 7 6 6 6 6 7 8 9 9 10 11 11 12 12 13 13 14 12 11 11 11 11 11 11 10 10 9 7 4 3 4 4 4 4 3 3 2 2 2 1 1
6 6 7 6 6 6 7 7 7 8 9 9 10 11 11 12 12 13 14 13 13 12 11 11 11 11 10 10 7 4 3 3 3 4 4 4 4 3 3 2 2 2 1
5 7 6 7 7 6 6 7 8 8 8 9 10 10 10 10 11 11 12 13 13 12 12 11 11 11 9 10 9 5 4 3 3 4 4 4 4 4 4 3 3 2 2
4 5 6 6 6 6 6 7 7 7 8 9 10 10 10 10 10 11 11 12 14 14 13 12 11 11 10 10 8 4 7 4 4 4 4 4 4 4 4 3 3 2 2
2 4 6 6 6 6 6 7 7 8 8 9 9 10 10 10 10 10 10 11 12 15 15 13 13 11 10 10 8 8 9 6 4 4 4 4 4 4 3 3 3 3 2
3 3 4 5 6 6 6 7 7 8 8 9 9 9 10 10 10 10 10 11 12 13 14 13 12 11 10 8 8 8 9 6 6 5 4 3 3 4 3 3 3 3 2
3 2 4 5 6 6 6 7 7 8 8 9 9 9 9 10 10 10 11 11 11 12 14 12 11 10 11 11 10 10 9 10 9 5 4 3 3 3 3 3 3 2 1
4 3 3 4 5 5 6 7 8 8 8 9 9 9 9 8 10 11 11 11 11 12 12 13 12 11 11 11 11 11 10 9 9 6 4 4 3 2 1 1 0 0 -0
2 3 3 4 4 5 6 7 7 8 8 8 9 9 9 10 11 11 11 11 12 10 11 12 12 12 12 11 11 11 11 9 8 5 4 3 2 1 0 0 0 0 0
2 2 4 3 4 5 6 6 7 8 8 8 8 9 9 10 11 11 11 12 11 12 12 12 12 12 12 11 12 11 11 9 9 7 5 4 3 1 1 0 1 1 0
2 2 3 4 4 5 6 7 7 9 9 9 9 8 9 9 6 9 10 11 11 12 12 12 12 12 12 12 13 11 10 9 8 7 6 5 4 4 3 2 2 1 0
3 3 4 5 5 5 3 4 7 9 9 9 10 10 9 6 6 5 6 6 9 11 12 13 12 12 12 12 11 10 10 9 10 5 5 5 4 4 4 4 2 2 0
3 4 4 5 6 6 3 3 4 8 9 10 10 10 10 8 7 10 6 6 6 7 7 11 12 12 12 11 10 10 9 8 7 4 4 6 4 4 3 3 2 1 -0
4 5 5 5 6 7 3 3 4 9 10 10 10 11 11 11 9 10 11 11 11 11 10 9 10 11 11 9 8 7 6 6 5 5 4 7 4 4 2 3 1 1 -0
5 5 5 5 7 7 3 3 6 10 10 11 11 11 11 11 7 6 10 11 11 11 8 7 7 7 5 5 5 6 7 7 8 7 5 6 5 3 3 3 3 1 0
5 5 6 6 6 8 4 3 8 9 10 11 11 10 7 10 6 7 11 12 12 12 11 11 11 9 7 7 5 6 7 8 8 8 5 6 4 3 4 2 2 2 1